EW1152 Bellingham MA US current weather conditions

sailwx.info

Wind from 184 at 0 knots gusting 3

Air temperature 30.0° C
Dewpoint 25.1° C

Last reported at 2019-Aug-19 20:07 UTC.
Time now 2019-Aug-19 21:16 UTC

Location: N 42°05' W 071°29'.
View on Google Maps.

See reports from other nearby stations

  
Tides and Currents Weather Stations Pressure Air Temp Water Temp Dewpoint Dewpoint Depression Visibility Wind Speed Wind Dir Waves Ship Positions
date/time (UTC)wind fromknots sea level pressurealtimeterstation pressurevisibilityair tempwater tempwave heightnotes
2019-Aug-19 20:07 184 0 gusting 3 30.0
2019-Aug-19 20:02 174 0 gusting 4 30.6
2019-Aug-19 19:57 165 0 gusting 4 30.6
2019-Aug-19 19:52 284 1 gusting 6 30.6
2019-Aug-19 19:47 221 1 gusting 9 31.1
2019-Aug-19 19:42 184 2 gusting 9 31.1
2019-Aug-19 19:37 186 3 gusting 9 31.1
2019-Aug-19 19:32 180 3 gusting 6 31.7
2019-Aug-19 19:27 083 2 gusting 9 31.7
2019-Aug-19 19:22 095 2 gusting 9 31.7
2019-Aug-19 19:17 211 2 gusting 9 31.7
2019-Aug-19 19:12 197 2 gusting 11 31.7
2019-Aug-19 19:07 210 3 gusting 11 31.7
2019-Aug-19 19:02 168 3 gusting 8 31.7
2019-Aug-19 18:57 151 2 gusting 8 31.7
2019-Aug-19 18:52 184 2 gusting 10 31.7
2019-Aug-19 18:47 167 2 gusting 10 31.7
2019-Aug-19 18:42 161 2 gusting 10 31.7
2019-Aug-19 18:37 232 2 gusting 8 31.7
2019-Aug-19 18:32 138 1 gusting 7 31.7
2019-Aug-19 18:27 138 1 gusting 8 31.7
2019-Aug-19 18:22 163 2 gusting 8 31.7
2019-Aug-19 18:17 144 2 gusting 8 31.7
2019-Aug-19 18:12 331 2 gusting 9 31.7
2019-Aug-19 18:07 31.7
2019-Aug-19 18:02 278 2 gusting 9 31.7
2019-Aug-19 17:57 265 2 gusting 8 31.7
2019-Aug-19 17:52 217 2 gusting 8 31.7
2019-Aug-19 17:47 189 2 gusting 8 31.1
2019-Aug-19 17:42 288 1 gusting 6 31.1
2019-Aug-19 17:37 31.7
2019-Aug-19 17:32 126 2 gusting 8 31.7
2019-Aug-19 17:27 211 3 gusting 8 31.7
2019-Aug-19 17:22 224 2 gusting 10 31.7
2019-Aug-19 17:17 277 2 gusting 10 31.7
2019-Aug-19 17:12 234 2 gusting 10 31.7
2019-Aug-19 17:07 298 3 gusting 9 31.7
2019-Aug-19 17:02 130 3 gusting 9 31.7
2019-Aug-19 16:57 162 2 gusting 9 31.7
2019-Aug-19 16:52 222 2 gusting 9 31.7
2019-Aug-19 16:47 248 3 gusting 10 31.7
2019-Aug-19 16:42 190 3 gusting 11 31.7
2019-Aug-19 16:37 207 2 gusting 11 31.7
2019-Aug-19 16:32 253 3 gusting 11 31.1
2019-Aug-19 16:27 258 3 gusting 9 31.1
2019-Aug-19 16:22 230 2 gusting 6 31.1
2019-Aug-19 16:17 155 1 gusting 7 31.1
2019-Aug-19 16:12 144 2 gusting 7 31.1
2019-Aug-19 16:07 309 2 gusting 7 31.1
2019-Aug-19 16:02 286 2 gusting 7 31.1
2019-Aug-19 15:57 153 2 gusting 7 30.6
2019-Aug-19 15:52 120 2 gusting 7 30.6
2019-Aug-19 15:47 217 2 gusting 6 30.6
2019-Aug-19 15:42 082 2 gusting 5 30.6
2019-Aug-19 15:37 278 1 gusting 6 30.6
2019-Aug-19 15:32 153 1 gusting 6 30.0
2019-Aug-19 15:27 238 2 gusting 6 30.0
2019-Aug-19 15:22 184 2 gusting 7 30.0
2019-Aug-19 15:17 282 2 gusting 9 30.6
2019-Aug-19 15:12 253 2 gusting 9 30.6
2019-Aug-19 15:07 253 2 gusting 12 30.0
2019-Aug-19 15:02 219 2 gusting 12 30.0
2019-Aug-19 14:57 239 3 gusting 12 30.0
2019-Aug-19 14:52 309 2 gusting 7 30.0
2019-Aug-19 14:47 193 1 gusting 7 29.4
2019-Aug-19 14:42 345 1 gusting 7 29.4
2019-Aug-19 14:37 141 1 gusting 5 28.9
2019-Aug-19 14:32 144 1 gusting 5 28.9
2019-Aug-19 14:27 279 1 gusting 6 28.3
2019-Aug-19 14:22 200 1 gusting 6 28.3
2019-Aug-19 14:17 183 1 gusting 6 27.8
2019-Aug-19 14:12 294 1 gusting 5 27.8
2019-Aug-19 14:07 309 1 gusting 5 27.2
2019-Aug-19 14:02 236 1 gusting 5 27.2
2019-Aug-19 13:57 187 1 gusting 5 27.2
2019-Aug-19 13:52 279 1 gusting 5 26.7
2019-Aug-19 13:47 296 1 gusting 5 26.7
2019-Aug-19 13:42 318 1 26.1